Location: Holyhead Bay
(53.3667°N, 4.6667°W)
Time: 18:03:53
(UTC+00:00)

CZ-4B DEB - Pass Details

Date: 24 November 2020
Orbit: 841 x 861 km, 99.1° (Epoch: 16 January)

Event Time Altitude Azimuth Distance (km) Brightness Sun altitude
Rises 16:58:54 0° 162° (SSE) 3,406 7.5 -7.1°
Reaches altitude 10° 17:01:15 10° 163° (SSE) 2,472 6.7 -7.4°
Maximum altitude 17:06:45 87° 252° (WSW) 856 4.3 -8.2°
Drops below altitude 10° 17:12:16 10° 343° (NNW) 2,477 6.6 -8.9°
Sets 17:14:38 0° 344° (NNW) 3,415 7.3 -9.3°
